[[{"header":{"parameterUnit":"m.s-1","parameterCategory":1,"la1":30.2991,"la2":30.254,"lo1":-89.0895,"lo2":-89.0444,"dy":0.0017,"dx":0.0017,"nx":28,"ny":28,"refTime":"2024-05-26T09:00:00:Z","depth":0,"parameterNumber":2,"parameterNumberName":"U-component_of_WINDS"},"data":[0,0,0,0,0,0,0,0,0,0,0,0,0,0,0,0,0,0,0,0,0,0,0,0,0,0,0,0,0,0,0,0,0,0,0,0,0,0,0,0,0,0,0,0,0,0,0,0,0,0,0,0,0,0,0,0,0,0,-2.0319,-2.0319,0,-2.0331,-2.0331,-2.0331,-2.0339,-2.0339,-2.0339,-2.0339,-2.0351,-2.0351,-2.0352,0,0,0,0,0,0,0,0,0,0,0,0,0,-2.0303,-2.0304,-2.0319,-2.0319,-2.0319,-2.0331,-2.0331,-2.0331,-2.0339,-2.0339,-2.0339,-2.0339,-2.0351,-2.0351,-2.0352,0,0,0,0,0,0,0,0,0,0,0,0,0,-2.0312,-2.0304,-2.0319,-2.0324,-2.0325,-2.0331,-2.0331,-2.0331,-2.0339,-2.0339,-2.0339,-2.0339,-2.0351,-2.0351,-2.0352,-2.0352,0,0,-2.0353,-2.0353,0,0,0,0,0,0,0,0,-2.0312,-2.0313,-2.0323,-2.0324,-2.0325,-2.0333,-2.033,-2.0338,-2.0339,-2.0334,-2.0339,-2.0339,-2.0345,-2.0346,-2.0348,-2.0353,-2.0353,-2.0353,-2.0353,-2.0353,-2.0354,0,0,0,0,0,0,0,-2.0311,-2.0312,-2.0323,-2.0324,-2.0324,-2.0327,-2.0328,-2.0331,-2.0339,-2.0334,-2.0335,-2.0336,-2.0346,-2.0348,-2.0348,-2.0354,-2.0353,-2.0353,-2.0354,-2.0354,-2.0361,-2.0361,0,0,0,0,0,0,-2.031,-2.0312,-2.0323,-2.0324,-2.0318,-2.0327,-2.0328,-2.033,-2.0339,-2.034,-2.0336,-2.0336,-2.0347,-2.0348,-2.0349,-2.0351,-2.0353,-2.0354,-2.0354,-2.0361,-2.0361,-2.0361,0,0,0,0,0,0,-2.0309,-2.031,-2.0322,-2.0318,-2.032,-2.0327,-2.0329,-2.0331,-2.0333,-2.034,-2.0342,-2.0337,-2.0347,-2.0348,-2.0352,-2.0351,-2.0354,-2.0354,-2.0361,-2.0361,-2.0361,-2.0354,0,0,0,0,0,0,-2.0309,-2.031,-2.031,-2.0318,-2.032,-2.0325,-2.0329,-2.0331,-2.0333,-2.0334,-2.0341,-2.0342,-2.0347,-2.0351,-2.0352,-2.0352,-2.0355,-2.0361,-2.0361,-2.0361,-2.0354,-2.0353,-2.0353,0,0,0,0,0,-2.0308,-2.0308,-2.031,-2.0312,-2.032,-2.0325,-2.0326,-2.0331,-2.0333,-2.0334,-2.0339,-2.0342,-2.0351,-2.0351,-2.0353,-2.0352,-2.0361,-2.0361,-2.0361,-2.0354,-2.0353,-2.0353,0,0,0,0,0,0,-2.0299,-2.0309,-2.0312,-2.0314,-2.0318,-2.0326,-2.0326,-2.033,-2.0335,-2.0335,-2.0342,-2.0343,-2.0346,-2.035,-2.035,-2.0354,-2.0357,-2.0357,-2.0351,-2.0351,-2.035,-2.0349,-2.0355,0,0,0,0,0,-2.0298,-2.0301,-2.0309,-2.031,-2.0312,-2.0319,-2.0321,-2.0325,-2.033,-2.0332,-2.0337,-2.0342,-2.0346,-2.0349,-2.0353,-2.0355,-2.0357,-2.0355,-2.0355,-2.0354,-2.0354,-2.0356,-2.0356,-2.036,-2.036,-2.036,0,0,-2.0294,-2.03,-2.0301,-2.0308,-2.0312,-2.0315,-2.032,-2.0323,-2.0326,-2.0333,-2.0336,-2.034,-2.0346,-2.0349,-2.0351,-2.0352,-2.0354,-2.0354,-2.0354,-2.0354,-2.0356,-2.0356,-2.0355,-2.036,-2.036,-2.036,0,0,-2.0289,-2.0294,-2.0295,-2.03,-2.0306,-2.0311,-2.0311,-2.0319,-2.0322,-2.0326,-2.0331,-2.0335,-2.0341,-2.0345,-2.0348,-2.0347,-2.035,-2.0348,-2.0345,-2.0346,-2.0346,-2.0346,-2.0345,-2.0345,-2.0348,-2.0348,-2.0348,0,-2.0284,-2.0289,-2.0296,-2.0298,-2.0302,-2.0309,-2.031,-2.0314,-2.0322,-2.0324,-2.0326,-2.0335,-2.0339,-2.0344,-2.0343,-2.0345,-2.0346,-2.0347,-2.0346,-2.0345,-2.0345,-2.0345,-2.0345,-2.0347,-2.0348,-2.0348,-2.0348,0,-2.0282,-2.0286,-2.0286,-2.0294,-2.0297,-2.0299,-2.0307,-2.0309,-2.0313,-2.0318,-2.0322,-2.0328,-2.0334,-2.0336,-2.0339,-2.0341,-2.0341,-2.0344,-2.0347,-2.0344,-2.0344,-2.0344,-2.0347,-2.0347,-2.0347,-2.0347,0,0,-2.0271,-2.0283,-2.0283,-2.0287,-2.0295,-2.0298,-2.0301,-2.0307,-2.0309,-2.0315,-2.0317,-2.0324,-2.0327,-2.033,-2.0335,-2.0337,-2.0335,-2.0339,-2.034,-2.0338,-2.0338,-2.0335,-2.0335,-2.0338,-2.0338,-2.0338,-2.0337,0,-2.0267,-2.0273,-2.0279,-2.0283,-2.0286,-2.0294,-2.0297,-2.0302,-2.0307,-2.0311,-2.0317,-2.0321,-2.0325,-2.0327,-2.0329,-2.0335,-2.0335,-2.0335,-2.0341,-2.0341,-2.0339,-2.0335,-2.0332,-2.033,-2.0337,-2.0337,-2.0337,0,-2.0263,-2.0268,-2.0272,-2.0281,-2.0283,-2.0285,-2.0292,-2.0295,-2.0302,-2.0306,-2.031,-2.0316,-2.032,-2.0323,-2.0329,-2.0329,-2.0332,-2.0335,-2.0335,-2.0336,-2.0338,-2.0335,-2.033,-2.0329,-2.0337,-2.0337,-2.0337,0,-2.0254,-2.0262,-2.0266,-2.0269,-2.028,-2.0281,-2.0286,-2.0293,-2.0296,-2.0302,-2.0305,-2.0311,-2.0314,-2.0319,-2.0326,-2.0327,-2.0331,-2.0335,-2.0335,-2.0334,-2.0334,-2.0334,-2.033,-2.0337,-2.0337,-2.0337,-2.0337,0,-2.0249,-2.0251,-2.0262,-2.0264,-2.0267,-2.0276,-2.0278,-2.0283,-2.029,-2.0294,-2.0301,-2.0304,-2.0313,-2.0318,-2.0323,-2.0328,-2.0329,-2.0332,-2.0334,-2.0332,-2.0331,-2.0333,-2.0333,-2.0337,-2.0337,-2.0337,-2.0337,0,-2.0239,-2.0247,-2.0251,-2.0261,-2.0264,-2.0265,-2.0274,-2.0277,-2.0283,-2.0287,-2.0289,-2.0298,-2.0304,-2.0312,-2.032,-2.0324,-2.0328,-2.033,-2.0325,-2.0326,-2.0325,-2.0325,-2.0322,-2.0322,-2.0329,-2.0329,-2.0329,0,-2.0234,-2.0236,-2.0247,-2.025,-2.0254,-2.0259,-2.0263,-2.0272,-2.0275,-2.0284,-2.0286,-2.0293,-2.0298,-2.0307,-2.0315,-2.0322,-2.0324,-2.0322,-2.0325,-2.0323,-2.0324,-2.0324,-2.0324,-2.0321,-2.0321,-2.0321,-2.0321,0,-2.0226,-2.023,-2.0235,-2.0242,-2.0247,-2.0253,-2.0259,-2.0261,-2.0271,-2.0275,-2.0281,-2.0286,-2.0295,-2.0301,-2.0309,-2.0314,-2.0319,-2.0321,-2.0321,-2.0318,-2.0315,-2.0317,-2.0323,-2.032,-2.032,-2.032,-2.032,-2.032,-2.0218,-2.0221,-2.0229,-2.0235,-2.0241,-2.0247,-2.025,-2.0257,-2.0262,-2.027,-2.0275,-2.0281,-2.029,-2.0301,-2.0306,-2.0311,-2.0313,-2.0313,-2.0313,-2.0313,-2.0313,-2.0315,-2.0313,-2.0313,-2.0313,-2.0313,-2.0313,0,-2.021,-2.0216,-2.0221,-2.023,-2.0235,-2.024,-2.0248,-2.0252,-2.0257,-2.0264,-2.027,-2.0278,-2.0285,-2.0294,-2.0301,-2.0304,-2.0307,-2.0305,-2.0305,-2.0306,-2.031,-2.0309,-2.0303,-2.0303,-2.0303,-2.0303,-2.0303,-2.0303,-2.0206,-2.021,-2.0216,-2.0224,-2.023,-2.0236,-2.024,-2.0246,-2.0252,-2.026,-2.0266,-2.0272,-2.028,-2.0289,-2.0295,-2.0298,-2.03,-2.0298,-2.0302,-2.0305,-2.0306,-2.0307,-2.0306,-2.0299,-2.0299,-2.0297,-2.0297,-2.0297]},{"header":{"parameterUnit":"m.s-1","parameterCategory":1,"la1":30.2991,"la2":30.254,"lo1":-89.0895,"lo2":-89.0444,"dy":0.0017,"dx":0.0017,"nx":28,"ny":28,"refTime":"2024-05-26T09:00:00:Z","depth":0,"parameterNumber":3,"parameterNumberName":"V-component_of_WINDS"},"data":[0,0,0,0,0,0,0,0,0,0,0,0,0,0,0,0,0,0,0,0,0,0,0,0,0,0,0,0,0,0,0,0,0,0,0,0,0,0,0,0,0,0,0,0,0,0,0,0,0,0,0,0,0,0,0,0,0,0,6.1933,6.1933,0,6.1944,6.1944,6.1944,6.1884,6.1882,6.188,6.1879,6.1887,6.1889,6.1891,0,0,0,0,0,0,0,0,0,0,0,0,0,6.186,6.1861,6.1933,6.1933,6.1933,6.1944,6.1944,6.1944,6.1884,6.1882,6.188,6.1878,6.1886,6.1889,6.1891,0,0,0,0,0,0,0,0,0,0,0,0,0,6.1883,6.1862,6.1933,6.1905,6.1902,6.1943,6.1944,6.1944,6.1884,6.1882,6.1879,6.1877,6.1886,6.1888,6.1891,6.1959,0,0,6.1899,6.19,0,0,0,0,0,0,0,0,6.1882,6.1886,6.1909,6.1907,6.1904,6.191,6.1921,6.1949,6.1885,6.1891,6.1879,6.1876,6.1896,6.1898,6.1906,6.1959,6.196,6.19,6.1901,6.1902,6.1903,0,0,0,0,0,0,0,6.188,6.1885,6.1937,6.1909,6.1906,6.1891,6.1892,6.1926,6.1908,6.189,6.1886,6.1888,6.1895,6.1903,6.1905,6.196,6.1899,6.1902,6.1904,6.1905,6.2072,6.2074,0,0,0,0,0,0,6.1883,6.1884,6.1937,6.1937,6.1886,6.1894,6.1895,6.191,6.1907,6.1905,6.189,6.1885,6.19,6.1902,6.1905,6.1986,6.1902,6.1905,6.1906,6.2069,6.2072,6.2075,0,0,0,0,0,0,6.1881,6.1888,6.1936,6.191,6.1915,6.1898,6.1916,6.1912,6.192,6.1908,6.1904,6.1903,6.1898,6.1902,6.1947,6.1986,6.1906,6.1909,6.2066,6.207,6.2074,6.2148,0,0,0,0,0,0,6.1879,6.1888,6.1914,6.1911,6.1916,6.1978,6.1919,6.1914,6.1926,6.1919,6.1918,6.1915,6.1896,6.1943,6.1949,6.1988,6.1911,6.2062,6.2068,6.2072,6.2142,6.2154,6.2164,0,0,0,0,0,6.1877,6.1933,6.1915,6.1922,6.1949,6.198,6.1984,6.1961,6.1929,6.1955,6.1947,6.1915,6.198,6.1948,6.1955,6.1995,6.2059,6.2066,6.2072,6.2137,6.2151,6.2164,0,0,0,0,0,0,6.194,6.1932,6.1912,6.1969,6.1976,6.197,6.2002,6.1977,6.1993,6.1986,6.1957,6.1957,6.2007,6.2005,6.197,6.2061,6.2014,6.2022,6.2061,6.2075,6.2086,6.2086,6.1913,0,0,0,0,0,6.1961,6.1988,6.1979,6.203,6.2035,6.2018,6.2031,6.2014,6.2019,6.2021,6.2016,6.2023,6.2044,6.2059,6.2079,6.2141,6.214,6.2172,6.2183,6.2192,6.22,6.2234,6.2248,6.2096,6.2096,6.2096,0,0,6.2003,6.2002,6.2021,6.2043,6.2046,6.2075,6.2021,6.2053,6.2074,6.2026,6.2069,6.2066,6.207,6.2125,6.2149,6.2125,6.2242,6.22,6.2208,6.221,6.2242,6.2256,6.2269,6.21,6.21,6.2099,0,0,6.2096,6.2097,6.2141,6.2146,6.2152,6.2141,6.2152,6.215,6.2146,6.2189,6.2154,6.2178,6.2216,6.2222,6.223,6.2326,6.2298,6.2333,6.2392,6.2426,6.2438,6.2449,6.2484,6.2497,6.234,6.2341,6.2341,0,6.2147,6.219,6.2166,6.2202,6.2213,6.2172,6.2216,6.2221,6.2233,6.2242,6.2215,6.2263,6.2263,6.2319,6.2343,6.235,6.2362,6.2333,6.2439,6.2449,6.2458,6.2492,6.2505,6.2345,6.2345,6.2344,6.2344,0,6.2254,6.2285,6.2319,6.2333,6.2348,6.2388,6.237,6.2387,6.2369,6.2361,6.2405,6.2404,6.2424,6.2435,6.2417,6.2489,6.2474,6.2444,6.2396,6.2478,6.2509,6.2521,6.2351,6.235,6.2348,6.2347,0,0,6.2386,6.2388,6.2401,6.2408,6.2413,6.2435,6.2473,6.2493,6.251,6.2519,6.2551,6.2585,6.2557,6.2566,6.2547,6.2577,6.2655,6.2542,6.2542,6.2565,6.2737,6.2761,6.2776,6.2637,6.2639,6.2641,6.2737,0,6.2478,6.2544,6.2524,6.259,6.2619,6.2581,6.2614,6.262,6.2614,6.2636,6.2628,6.2654,6.2614,6.262,6.2647,6.264,6.269,6.2633,6.2666,6.2667,6.2667,6.2792,6.2817,6.2907,6.2748,6.275,6.2752,0,6.2593,6.261,6.2679,6.2681,6.2692,6.2722,6.274,6.2762,6.2769,6.2762,6.2773,6.2749,6.2786,6.2738,6.279,6.2752,6.2764,6.2762,6.2765,6.2768,6.2715,6.2799,6.2935,6.2949,6.2771,6.2769,6.2768,0,6.2684,6.2723,6.2771,6.2777,6.278,6.2803,6.2804,6.2809,6.2823,6.2838,6.2846,6.2865,6.2876,6.2891,6.2873,6.2839,6.2927,6.2877,6.2923,6.2923,6.2943,6.2942,6.3085,6.295,6.295,6.2949,6.2949,0,6.2789,6.2833,6.2812,6.2841,6.289,6.2867,6.2915,6.2913,6.2917,6.2945,6.2913,6.294,6.2914,6.2938,6.2924,6.2969,6.2974,6.297,6.2965,6.2973,6.2974,6.2981,6.2975,6.2953,6.2952,6.2951,6.2951,0,6.2899,6.2886,6.2935,6.2935,6.2936,6.2972,6.2971,6.2998,6.2989,6.3025,6.3032,6.3019,6.3046,6.303,6.3056,6.3047,6.3107,6.3093,6.3105,6.3102,6.3149,6.3145,6.3301,6.3321,6.3173,6.3174,6.3176,0,6.2967,6.3001,6.3004,6.3022,6.3026,6.3054,6.3069,6.3047,6.3063,6.3075,6.31,6.3125,6.3144,6.3189,6.3181,6.3202,6.319,6.3243,6.3192,6.32,6.3192,6.3191,6.3194,6.3253,6.3255,6.3257,6.3258,0,6.309,6.3083,6.3105,6.3127,6.3146,6.3161,6.3174,6.3189,6.3168,6.3188,6.3216,6.3231,6.326,6.3285,6.3303,6.3304,6.3278,6.3274,6.3286,6.3294,6.33,6.3299,6.3134,6.327,6.3269,6.3268,6.3267,6.3267,6.3182,6.3211,6.3219,6.3246,6.3253,6.3266,6.3292,6.3288,6.3311,6.3334,6.332,6.3353,6.336,6.3382,6.3387,6.3412,6.3391,6.3407,6.3412,6.3417,6.3424,6.3296,6.3415,6.3415,6.3414,6.3414,6.3414,0,6.3304,6.3308,6.3333,6.3353,6.3375,6.3349,6.3362,6.3381,6.3412,6.3421,6.3441,6.3474,6.3498,6.3493,6.3515,6.3537,6.3526,6.3544,6.3542,6.3543,6.3441,6.3429,6.3553,6.3553,6.3553,6.3553,6.3553,6.3553,6.3371,6.3419,6.3413,6.3465,6.3467,6.3501,6.3511,6.3523,6.353,6.3569,6.359,6.3587,6.3591,6.3613,6.3635,6.3633,6.3643,6.3666,6.3659,6.3564,6.355,6.3537,6.3526,6.3668,6.3668,6.3759,6.376,6.3761]}]]